Lid_Strength_Index
5 4 5 5 6 7 9 11 11 8 9 12 15 15 14 11 10 11 11 11 11 13 13 13 13 12 10 7 9 13 14 15 15 13 12 12 14 14 15 16 17 19 18 15
5 5 5 6 6 7 11 11 11 8 10 14 15 14 12 12 11 12 11 11 10 10 12 14 11 10 7 7 9 11 12 16 17 14 13 13 14 14 16 17 17 18 17 14
4 5 5 6 6 7 10 12 13 11 12 14 14 14 14 12 9 10 10 10 10 10 12 11 12 11 8 8 8 5 7 17 16 15 14 13 14 13 15 15 17 17 16 13
4 4 4 5 6 7 10 12 14 13 15 14 14 14 13 12 12 10 10 10 10 11 14 13 13 11 11 9 7 9 11 13 15 13 12 13 12 12 14 14 14 14 13 14
3 4 4 5 5 7 10 12 13 13 14 14 14 13 14 12 11 11 11 11 10 10 13 14 13 13 14 12 11 11 12 13 14 13 11 13 13 11 13 13 14 14 15 14
2 2 3 3 4 6 10 10 11 11 14 14 15 15 13 11 10 10 9 10 11 11 10 10 10 11 11 12 13 13 13 14 14 15 12 12 14 11 12 11 13 12 13 12
3 2 2 2 3 5 8 9 10 11 14 12 12 11 10 10 10 11 9 9 11 9 7 8 11 13 12 13 12 12 13 13 14 15 14 17 12 10 9 10 9 12 12 11
2 2 1 2 2 3 7 7 9 11 14 11 10 10 10 10 10 10 10 8 8 8 9 11 13 13 14 12 11 10 11 13 14 14 16 12 10 9 10 11 9 9 10 10
3 2 2 2 2 3 7 8 8 9 12 14 9 11 11 13 13 12 10 8 8 9 11 12 14 14 13 13 12 10 10 10 12 15 16 17 10 8 7 9 12 8 8 8
3 3 2 2 2 2 6 7 7 8 12 11 10 12 13 11 12 13 12 10 10 10 12 13 14 13 11 13 13 13 14 13 14 15 16 13 10 8 7 13 12 8 7 7
3 3 2 2 2 1 5 7 7 8 12 11 9 9 10 10 11 13 12 13 12 12 14 14 13 14 12 14 12 13 12 13 15 15 17 16 8 8 12 10 8 7 7 7
3 2 1 2 1 2 3 9 7 7 10 10 7 6 5 5 7 10 10 11 11 11 13 13 13 13 12 14 16 11 14 11 13 12 12 9 8 8 6 6 8 7 7 7
2 1 2 1 2 2 3 5 4 7 9 9 10 8 6 6 6 5 9 9 8 9 10 12 13 14 11 15 14 13 10 9 12 11 10 9 7 6 6 6 6 6 6 6
1 1 2 2 2 2 2 4 4 4 8 9 10 6 7 5 6 5 5 7 8 8 8 10 12 13 11 12 12 12 10 9 12 11 9 8 7 6 6 6 5 6 5 5
1 2 2 3 2 1 3 4 3 3 8 11 9 7 7 7 7 6 6 6 8 9 10 11 11 10 10 10 11 12 8 11 12 12 9 9 8 6 5 6 6 6 5 6
2 3 3 1 1 2 6 9 3 3 3 7 11 9 9 7 7 7 8 7 9 9 10 10 9 8 8 11 13 9 7 7 7 9 8 6 6 5 5 6 5 5 6 6
3 2 1 1 2 3 8 9 5 4 4 7 10 12 9 7 8 8 8 9 9 9 10 10 8 8 7 10 12 9 8 8 8 8 6 7 6 7 5 5 4 5 6 7
3 1 2 2 2 3 6 5 3 4 5 6 10 11 9 6 8 8 8 9 9 9 9 10 9 8 8 11 9 8 7 7 8 8 5 5 5 5 5 4 4 5 6 6
2 2 2 5 5 6 5 1 2 3 5 11 11 12 13 7 8 7 7 8 11 8 10 9 9 10 12 9 9 7 7 7 8 5 5 5 6 6 5 5 5 5 5 5
2 4 5 6 4 1 1 4 6 6 7 7 11 9 11 8 9 11 10 8 10 12 10 9 11 10 7 7 7 6 5 6 5 7 8 7 7 6 6 5 5 5 5 4
6 6 5 5 1 3 7 9 9 9 10 10 9 9 10 7 11 12 9 10 10 13 11 11 12 12 8 6 6 5 5 7 8 6 5 5 5 5 5 5 5 4 4 4
5 4 5 4 5 6 10 12 9 10 13 9 10 9 8 7 7 10 9 11 10 14 8 12 13 10 7 6 6 5 5 6 7 5 5 4 4 4 4 4 4 4 3 3
5 5 6 6 9 11 12 14 12 11 9 10 9 9 7 8 7 9 9 12 13 8 12 13 11 8 7 6 6 6 5 5 6 6 4 4 4 3 4 4 4 4 4 3
7 9 14 12 12 10 10 10 9 8 8 8 8 9 8 9 10 10 12 10 10 14 15 14 10 8 7 6 5 7 8 7 6 6 4 4 4 4 4 4 3 4 4 3
8 9 12 11 8 8 7 8 8 8 7 7 8 9 8 10 11 11 12 13 14 13 13 11 9 7 6 6 6 5 5 5 5 5 5 4 4 4 4 3 3 3 3 3
9 9 10 9 10 10 9 9 8 6 6 7 9 11 11 11 11 12 13 14 15 13 12 9 7 6 6 6 5 5 5 5 5 5 4 4 5 5 4 4 4 4 4 4
8 9 8 9 10 9 7 7 8 7 8 10 10 12 11 9 11 12 10 12 11 9 9 7 6 6 6 5 5 5 4 5 4 4 4 4 4 4 4 5 4 4 3 3